Location: Lussas
(44.6119°N, 4.4726°E)
Time: 04:55:21
(UTC+00:00)

Spot 2 - Pass Details

Date: 26 November 2020
Orbit: 569 x 774 km, 98.7° (Epoch: 18 January)

Event Time Altitude Azimuth Distance (km) Brightness Sun altitude
Rises 05:50:10 0° 11° (NNE) 3,254 7.7 -11.1°
Reaches altitude 10° 05:52:30 10° 9° (N) 2,330 6.9 -10.7°
Maximum altitude 05:57:38 69° 288° (WNW) 828 4.5 -9.8°
Drops below altitude 10° 06:02:41 10° 205° (SSW) 2,290 6.9 -9.0°
Sets 06:04:57 0° 203° (SSW) 3,193 7.7 -8.6°
